[Iaude] MPEC G39: 2024 FR4 [a=0.95,e=0.34,i=10.9,H=25.8]
    mpec at cfa.harvard.edu 
    mpec at cfa.harvard.edu
       
    Thu Apr  4 08:38:23 EDT 2024
    
    
  
M.P.E.C. 2024-G39                                 Issued 2024 April 4, 12:36 UT
     The Minor Planet Electronic Circulars contain information on unusual
         minor planets, routine data on comets and natural satellites,
         and occasional editorial announcements.  They are published
    on behalf of Division F of the International Astronomical Union by the
          Minor Planet Center, Smithsonian Astrophysical Observatory,
                          Cambridge, MA 02138, U.S.A.
			  
             Prepared using the Tamkin Foundation Computer Network
                              MPC at CFA.HARVARD.EDU
            URL https://www.minorplanetcenter.net/    ISSN 1523-6714
                                    2024 FR4                                    
Observations:
     K24F04R* C2024 03 30.28009411 04 59.791+08 02 42.93         21.63wXEG039F51
     K24F04R  C2024 03 30.29208811 05 00.400+08 03 57.15         21.46wXEG039F51
     K24F04R  C2024 03 30.31613411 05 01.612+08 06 26.04         21.66wXEG039F51
     K24F04R  C2024 03 30.48004211 05 09.442+08 22 57.74         22.03GVEG039F51
     K24F04R  C2024 03 30.48085711 05 09.468+08 23 01.77         20.99GVEG039F51
     K24F04R KC2024 03 31.15244911 06 11.696+09 26 42.13         22.0 GVEG039H01
     K24F04R KC2024 03 31.15909211 06 12.015+09 27 18.63         21.9 GVEG039H01
     K24F04R KC2024 03 31.16639811 06 12.386+09 27 58.52         21.7 GVEG039H01
     K24F04R KC2024 03 31.17312211 06 12.724+09 28 35.41         21.4 GVEG039H01
     K24F04R KC2024 03 31.18438211 06 13.612+09 29 38.94         21.79GVEG039V06
     K24F04R KC2024 03 31.18719611 06 13.756+09 29 54.49         21.56GVEG039V06
     K24F04R KC2024 03 31.19000811 06 13.896+09 30 09.79         21.71GVEG039V06
     K24F04R KC2024 03 31.19282111 06 14.018+09 30 24.84         21.58GVEG039V06
     K24F04R KC2024 04 04.28618 11 10 57.49 +14 15 03.3          22.6 RVEG039291
     K24F04R KC2024 04 04.29706 11 10 57.84 +14 15 37.4          22.6 RVEG039291
     K24F04R KC2024 04 04.30796 11 10 58.25 +14 16 11.6          22.9 RVEG039291
Observer details:
291 LPL/Spacewatch II.  Observer T. H. Bressi.  1.8-m f/2.7 reflector + CCD.
F51 Pan-STARRS 1, Haleakala.  Observers J. Herman, T. Lowe, P. Minguez, A.
    Schultz, I. Smith.  Measurers K. Chambers, T. de Boer, J. Fairlamb, H.
    Gao, M. Huber, C.-C. Lin, E. Magnier, Y. Ramanjooloo, R. Wainscoat, R.
    Weryk.  1.8-m Ritchey-Chretien + CCD.
H01 Magdalena Ridge Observatory, Socorro.  Observers W. H. Ryan, E. V. Ryan.
    Measurer W. H. Ryan.  2.4-m f/8.9 Ritchey-Chretien + CCD.
V06 Catalina Sky Survey-Kuiper.  Observers T. Beuden, H. Groeller.  Measurers
    T. Beuden, V. F. Carvajal, D. Fay, J. B. Fazekas, D. C. Fuls, A. R. Gibbs,
    A. D. Grauer, H. Groeller, J. K. Hogan, R. A. Kowalski, S. M. Larson, G.
    J. Leonard, D. Rankin, R. L. Seaman, F. C. Shelly, K. W. Wierzchos.
    1.55-m reflector + 1K CCD.
Orbital elements:
2024 FR4                                                 Earth MOID = 0.0350 AU
Epoch 2024 Mar. 31.0 TT = JDT 2460400.5                 Veres                   
M  94.57807              (2000.0)            P               Q                  
n   1.05826280     Peri.  231.23935     +0.52923690     -0.84816609             
a   0.9536896      Node   186.92188     +0.82537571     +0.52088621             
e   0.3440176      Incl.   10.93448     +0.19662968     +0.09639423             
P   0.93           H   25.86          G   0.15           U   7                  
Residuals in seconds of arc
240330 F51  0.1+  0.4+    240331 H01  0.2-  0.0     240331 V06  0.0   0.1-
240330 F51  0.1-  0.2+    240331 H01  0.1-  0.1-    240404 291  0.4+  0.0
240330 F51  0.1+  0.4+    240331 H01  0.0   0.0     240404 291  0.3-  0.1-
240330 F51  0.1+  0.3-    240331 V06  0.0   0.0     240404 291  0.2-  0.0
240330 F51  0.2-  1.1-    240331 V06  0.1+  0.2+
240331 H01  0.0   0.0     240331 V06  0.2+  0.1+
Ephemeris:
2024 FR4                 a,e,i = 0.95, 0.34, 11                  q = 0.6256
Date    TT    R. A. (2000) Decl.     Delta      r    Elong.  Phase     V
2024 03 05    23 49 04.0 -53 51 59   0.08987 0.9350    48.7   127.2    25.9
...
2024 03 20    10 28 08.6 -38 12 22   0.03713 1.0230   136.4    42.2    20.4
...
2024 03 28    11 01 13.7 +03 23 35   0.07261 1.0655   157.5    21.0    21.3
...
2024 04 03    11 09 35.9 +13 01 42   0.1093  1.0951   149.2    27.9    22.5
2024 04 04    11 10 40.7 +14 00 01   0.1157  1.0999   147.9    28.9    22.7
2024 04 05    11 11 42.6 +14 51 30   0.1222  1.1045   146.6    29.9    22.8
...
2024 04 11    11 17 22.3 +18 18 58   0.1624  1.1314   140.0    34.7    23.6
...
2024 04 19    11 24 41.4 +20 19 24   0.2186  1.1638   132.7    39.4    24.5
...
2024 05 04    11 39 51.5 +20 38 32   0.3294  1.2141   121.7    45.0    25.6
M. P. C. Staff               (C) Copyright 2024 MPC           M.P.E.C. 2024-G39
    
    
More information about the Iaude
mailing list